Capri, Italy

1:48 PM CEST on March 28, 2017 (GMT +0200)
Capri

Weather History for LIQC - October, 2012

Change the Weather History Date:

Tuesday, October 30, 2012

  Actual Average (LIRN) Record (LIRN)
Temperature  
Mean Temperature 59 °F -  
Max Temperature 63 °F 69 °F 77 °F (2004)
Min Temperature 55 °F 53 °F 41 °F (2012)
Degree Days  
Heating Degree Days 6    
Growing Degree Days 9 (Base 50)    
Moisture  
Dew Point 49 °F    
Average Humidity 69    
Maximum Humidity 88    
Minimum Humidity 51    
Precipitation  
Precipitation 0.00 in - - ()
Sea Level Pressure  
Sea Level Pressure 29.86 in    
Wind  
Wind Speed 3 mph ()    
Max Wind Speed 6 mph    
Max Gust Speed -    
Visibility 8.0 miles    
Events      
Averages and records for this station are not official NWS values.
T = Trace of Precipitation, MM = Missing Value Source: Averaged Metar Reports

Daily Weather History Graph

Daily Weather History Graph

Search for Another Location

Airport or City:

Trip Planner

Search our weather history database for the weather conditions in past years. The results will help you decide how hot, cold, wet, or windy it might be!

Date:

Astronomy

Oct. 30, 2012 Rise Set
Actual Time 6:31 AM CET 5:01 PM CET
Civil Twilight 6:02 AM CET 5:30 PM CET
Nautical Twilight 5:30 AM CET 6:02 PM CET
Astronomical Twilight 4:58 AM CET 6:34 PM CET
Moon 5:20 PM CET (10/30) 7:02 AM CET (10/30)
Length of Visible Light 11h 27m
Length of Day
10h 30m
Full, 100% of the Moon is Illuminated
Oct 30
Full
Nov 7
Last Quarter
Nov 13
New
Nov 20
First Quarter
Nov 28
Full

Hourly Weather History & Observations

Time (CET) Temp. Dew Point Humidity Pressure Visibility Wind Dir Wind Speed Gust Speed Precip Events Conditions
12:55 AM 55.4 °F 42.8 °F 63% 29.83 in 6.2 mi West 5.8 mph - N/A   Scattered Clouds
1:00 AM 55 °F 43 °F 54% 29.83 in 12 mi West 5.8 mph - -  
4:00 AM 56 °F 43 °F 51% 29.86 in 12 mi WNW 4.6 mph - -   Partly Cloudy
6:55 AM 55.4 °F 44.6 °F 67% 29.83 in - North 3.5 mph - N/A   Clear
7:00 AM 56 °F 45 °F 57% 29.86 in 6 mi North 3.5 mph - -  
7:55 AM 55.4 °F 48.2 °F 77% 29.83 in - Calm Calm - N/A   Clear
8:55 AM 55.4 °F 48.2 °F 77% 29.86 in 6.2 mi Calm Calm - N/A   Scattered Clouds
9:55 AM 55.4 °F 46.4 °F 72% 29.89 in 6.2 mi East 3.5 mph - N/A   Scattered Clouds
10:00 AM 56 °F 46 °F 61% 29.89 in 12 mi East 3.5 mph - -   Partly Cloudy
11:55 AM 59.0 °F 48.2 °F 67% 29.89 in 6.2 mi East 4.6 mph - N/A   Scattered Clouds
1:00 PM 63 °F 50 °F 52% 29.88 in 12 mi ENE 3.5 mph - -  
2:55 PM 60.8 °F 50.0 °F 68% 29.86 in 6.2 mi Calm Calm - N/A   Mostly Cloudy
4:00 PM 59 °F 50 °F 64% 29.86 in 12 mi NNW 3.5 mph - -   Overcast
4:55 PM 59.0 °F 50.0 °F 72% 29.86 in 6.2 mi NNW 5.8 mph - N/A   Scattered Clouds
5:55 PM 59.0 °F 50.0 °F 72% 29.86 in 6.2 mi Calm Calm - N/A   Scattered Clouds
6:55 PM 60.8 °F 51.8 °F 72% 29.86 in 6.2 mi ENE 3.5 mph - N/A   Scattered Clouds
7:00 PM 61 °F 53 °F 66% 29.86 in 12 mi ENE 3.5 mph - -   Overcast
7:55 PM 60.8 °F 57.2 °F 88% 29.86 in 6.2 mi Calm Calm - N/A   Scattered Clouds
8:55 PM 59.0 °F 53.6 °F 82% 29.86 in 6.2 mi ENE 3.5 mph - N/A   Scattered Clouds
9:55 PM 60.8 °F 55.4 °F 82% 29.86 in 6.2 mi NW 3.5 mph - N/A   Scattered Clouds
10:00 PM 60 °F 56 °F 82% 29.86 in 6 mi NW 3.5 mph - -   Partly Cloudy